Hourly Weather Rutkowszczyzna

Today, 22 April, Thursday

Time Temperature Precipitation Wind Pressure Humidity
00:00 +8°C° 0 mm 2 mps 745 mmHg 74%
01:00 +7°C° 0 mm 2 mps 745 mmHg 78%
02:00 +6°C° 0 mm 2 mps 745 mmHg 84%
03:00 +6°C° 0 mm 2 mps 745 mmHg 86%
04:00 +5°C° 0 mm 2 mps 745 mmHg 88%
05:00 +5°C° 0 mm 2 mps 745 mmHg 90%
06:00 +4°C° 0.3 mm 3 mps 746 mmHg 90%
07:00 +4°C° 0.3 mm 3 mps 746 mmHg 89%
08:00 +4°C° 0 mm 4 mps 746 mmHg 87%
09:00 +5°C° 0.1 mm 4 mps 746 mmHg 76%
10:00 +6°C° 0.1 mm 5 mps 746 mmHg 65%
11:00 +7°C° 0.1 mm 6 mps 746 mmHg 54%
12:00 +7°C° 0.1 mm 6 mps 746 mmHg 52%
13:00 +8°C° 0.1 mm 6 mps 746 mmHg 50%
14:00 +8°C° 0.1 mm 7 mps 746 mmHg 48%
15:00 +8°C° 0.2 mm 7 mps 747 mmHg 52%
16:00 +8°C° 0.2 mm 7 mps 747 mmHg 55%
17:00 +6°C° 0.2 mm 7 mps 747 mmHg 59%
18:00 +5°C° 0.2 mm 6 mps 747 mmHg 65%
19:00 +3°C° 0.2 mm 5 mps 747 mmHg 71%
20:00 +3°C° 0.2 mm 3 mps 747 mmHg 78%
21:00 +1°C° 0 mm 4 mps 747 mmHg 79%
22:00 +1°C° 0 mm 4 mps 747 mmHg 80%
23:00 0°C° 0 mm 4 mps 748 mmHg 81%

Tomorrow, 23 April, Friday

Time Temperature Precipitation Wind Pressure Humidity
00:00 0°C° 0 mm 5 mps 748 mmHg 84%
01:00 0°C° 0 mm 5 mps 748 mmHg 87%
02:00 0°C° 0 mm 5 mps 748 mmHg 91%
03:00 0°C° 0 mm 5 mps 748 mmHg 90%
04:00 -1°C° 0 mm 6 mps 748 mmHg 89%
05:00 -1°C° 0 mm 6 mps 748 mmHg 88%
06:00 -1°C° 0 mm 6 mps 748 mmHg 86%
07:00 +1°C° 0 mm 6 mps 749 mmHg 85%
08:00 +1°C° 0 mm 6 mps 749 mmHg 84%
09:00 +2°C° 0.2 mm 6 mps 749 mmHg 76%
10:00 +3°C° 0.2 mm 6 mps 749 mmHg 68%
11:00 +4°C° 0.2 mm 6 mps 749 mmHg 60%
12:00 +4°C° 0.3 mm 7 mps 750 mmHg 56%
13:00 +5°C° 0.3 mm 7 mps 750 mmHg 52%
14:00 +5°C° 0.3 mm 7 mps 750 mmHg 47%
15:00 +5°C° 0.1 mm 7 mps 750 mmHg 48%
16:00 +5°C° 0.1 mm 7 mps 751 mmHg 49%
17:00 +4°C° 0.1 mm 7 mps 751 mmHg 50%
18:00 +3°C° 0 mm 6 mps 751 mmHg 56%
19:00 +1°C° 0 mm 5 mps 751 mmHg 62%
20:00 0°C° 0 mm 5 mps 752 mmHg 68%
21:00 -1°C° 0 mm 4 mps 752 mmHg 72%
22:00 -1°C° 0 mm 4 mps 752 mmHg 77%
23:00 -2°C° 0 mm 4 mps 752 mmHg 81%

Day after tomorrow, 24 April, Saturday

Time Temperature Precipitation Wind Pressure Humidity
00:00 -2°C° 0 mm 4 mps 752 mmHg 83%
01:00 -2°C° 0 mm 3 mps 752 mmHg 84%
02:00 -2°C° 0 mm 3 mps 752 mmHg 86%
03:00 -2°C° 0 mm 3 mps 752 mmHg 86%
04:00 -2°C° 0 mm 3 mps 753 mmHg 85%
05:00 -2°C° 0 mm 3 mps 753 mmHg 85%
06:00 -1°C° 0 mm 3 mps 753 mmHg 75%
07:00 0°C° 0 mm 4 mps 753 mmHg 66%
08:00 +3°C° 0 mm 4 mps 753 mmHg 56%
09:00 +3°C° 0.1 mm 5 mps 752 mmHg 51%
10:00 +4°C° 0.1 mm 6 mps 752 mmHg 46%
11:00 +5°C° 0.1 mm 7 mps 752 mmHg 41%
12:00 +5°C° 0.1 mm 7 mps 752 mmHg 42%
13:00 +5°C° 0.1 mm 7 mps 752 mmHg 42%
14:00 +5°C° 0.1 mm 7 mps 752 mmHg 43%
15:00 +5°C° 0.1 mm 7 mps 752 mmHg 45%
16:00 +5°C° 0.1 mm 6 mps 752 mmHg 47%
17:00 +4°C° 0.1 mm 6 mps 752 mmHg 49%
18:00 +3°C° 0 mm 6 mps 752 mmHg 53%
19:00 +1°C° 0 mm 5 mps 752 mmHg 56%
20:00 0°C° 0 mm 4 mps 752 mmHg 59%
21:00 -1°C° 0 mm 4 mps 752 mmHg 65%
22:00 -1°C° 0 mm 3 mps 753 mmHg 71%
23:00 -2°C° 0 mm 3 mps 753 mmHg 77%

25 April, Sunday

Time Temperature Precipitation Wind Pressure Humidity
00:00 -4°C° 0 mm 3 mps 753 mmHg 79%
01:00 -4°C° 0 mm 3 mps 752 mmHg 81%
02:00 -4°C° 0 mm 3 mps 752 mmHg 83%
03:00 -2°C° 0 mm 3 mps 752 mmHg 82%
04:00 -2°C° 0 mm 3 mps 752 mmHg 80%
05:00 -2°C° 0 mm 3 mps 752 mmHg 79%
06:00 -1°C° 0 mm 3 mps 752 mmHg 73%
07:00 0°C° 0 mm 4 mps 752 mmHg 66%
08:00 +1°C° 0 mm 4 mps 752 mmHg 59%
09:00 +2°C° 0.1 mm 5 mps 752 mmHg 56%
10:00 +3°C° 0.1 mm 5 mps 752 mmHg 52%
11:00 +5°C° 0.1 mm 5 mps 751 mmHg 48%
12:00 +5°C° 0.2 mm 6 mps 751 mmHg 47%
13:00 +5°C° 0.2 mm 6 mps 751 mmHg 46%
14:00 +5°C° 0.2 mm 7 mps 751 mmHg 45%
15:00 +5°C° 0.2 mm 6 mps 751 mmHg 49%
16:00 +4°C° 0.2 mm 6 mps 751 mmHg 53%
17:00 +3°C° 0.2 mm 6 mps 751 mmHg 57%
18:00 +2°C° 0 mm 5 mps 751 mmHg 63%
19:00 +1°C° 0 mm 5 mps 751 mmHg 68%
20:00 0°C° 0 mm 4 mps 751 mmHg 74%
21:00 -1°C° 0 mm 4 mps 751 mmHg 77%
22:00 -1°C° 0 mm 3 mps 751 mmHg 81%
23:00 -1°C° 0 mm 3 mps 751 mmHg 84%

26 April, Monday

Time Temperature Precipitation Wind Pressure Humidity
00:00 -2°C° 0 mm 3 mps 751 mmHg 86%
01:00 -2°C° 0 mm 3 mps 751 mmHg 88%
02:00 -4°C° 0 mm 3 mps 751 mmHg 90%
03:00 -4°C° 0 mm 3 mps 751 mmHg 90%
04:00 -4°C° 0 mm 3 mps 751 mmHg 90%
05:00 -5°C° 0 mm 3 mps 751 mmHg 90%
06:00 -2°C° 0 mm 3 mps 750 mmHg 80%
07:00 -1°C° 0 mm 4 mps 750 mmHg 69%
08:00 0°C° 0 mm 4 mps 750 mmHg 59%
09:00 +2°C° 0 mm 5 mps 750 mmHg 55%
10:00 +3°C° 0 mm 5 mps 750 mmHg 50%
11:00 +6°C° 0 mm 5 mps 749 mmHg 45%
12:00 +5°C° 0.1 mm 6 mps 749 mmHg 46%
13:00 +5°C° 0.1 mm 6 mps 749 mmHg 48%
14:00 +5°C° 0.1 mm 7 mps 748 mmHg 50%
15:00 +5°C° 0.1 mm 6 mps 748 mmHg 54%
16:00 +5°C° 0.1 mm 6 mps 748 mmHg 58%
17:00 +5°C° 0.1 mm 6 mps 748 mmHg 62%
18:00 +3°C° 0 mm 5 mps 748 mmHg 67%
19:00 +3°C° 0 mm 4 mps 748 mmHg 72%
20:00 +2°C° 0 mm 3 mps 748 mmHg 77%
21:00 +1°C° 0 mm 3 mps 748 mmHg 81%
22:00 0°C° 0 mm 3 mps 749 mmHg 86%
23:00 -1°C° 0 mm 3 mps 749 mmHg 91%

27 April, Tuesday

Time Temperature Precipitation Wind Pressure Humidity
00:00 0°C° 0 mm 3 mps 749 mmHg 90%
01:00 0°C° 0 mm 3 mps 749 mmHg 89%
02:00 0°C° 0 mm 4 mps 749 mmHg 89%
03:00 +1°C° 0 mm 3 mps 749 mmHg 89%
04:00 +1°C° 0 mm 3 mps 749 mmHg 90%
05:00 +1°C° 0 mm 3 mps 748 mmHg 90%
06:00 +2°C° 0 mm 3 mps 749 mmHg 88%
07:00 +2°C° 0 mm 3 mps 749 mmHg 86%
08:00 +3°C° 0 mm 4 mps 749 mmHg 84%
09:00 +4°C° 0 mm 4 mps 749 mmHg 79%
10:00 +4°C° 0 mm 3 mps 749 mmHg 74%
11:00 +5°C° 0 mm 3 mps 749 mmHg 69%
12:00 +5°C° 0.1 mm 3 mps 749 mmHg 66%
13:00 +7°C° 0.1 mm 3 mps 749 mmHg 64%
14:00 +7°C° 0.1 mm 3 mps 748 mmHg 61%
15:00 +7°C° 0 mm 3 mps 748 mmHg 61%
16:00 +7°C° 0 mm 2 mps 748 mmHg 61%
17:00 +7°C° 0 mm 2 mps 748 mmHg 61%
18:00 +7°C° 0 mm 2 mps 748 mmHg 65%
19:00 +6°C° 0 mm 2 mps 748 mmHg 69%
20:00 +6°C° 0 mm 1 mps 748 mmHg 73%
21:00 +5°C° 0 mm 1 mps 748 mmHg 77%
22:00 +3°C° 0 mm 2 mps 748 mmHg 80%
23:00 +3°C° 0 mm 2 mps 748 mmHg 84%
Show more